Abingdon, VA

8:12 PM EST on November 13, 2019 (GMT -0500)
Virginia Highlands

Weather History for KVJI - June, 2019

Change the Weather History Date:

Monday, June 3, 2019

  Actual Average (KTRI) Record (KTRI)
Temperature  
Mean Temperature 63 °F -  
Max Temperature 71 °F 79 °F 92 °F (1951)
Min Temperature 55 °F 57 °F 44 °F (1966)
Degree Days  
Heating Degree Days 2    
Growing Degree Days 13 (Base 50)    
Moisture  
Dew Point 43 °F    
Average Humidity 48    
Maximum Humidity 77    
Minimum Humidity 29    
Precipitation  
Precipitation 0.00 in - - ()
Sea Level Pressure  
Sea Level Pressure 30.14 in    
Wind  
Wind Speed 4 mph (NNW)    
Max Wind Speed 13 mph    
Max Gust Speed 17 mph    
Visibility 10 miles    
Events      
Averages and records for this station are not official NWS values.
T = Trace of Precipitation, MM = Missing Value Source: NWS Daily Summary

Daily Weather History Graph

Daily Weather History Graph

Search for Another Location

Airport or City:

Astronomy

Jun. 03, 2019 Rise Set
Actual Time 6:10 AM EDT 8:42 PM EDT
Civil Twilight 5:40 AM EDT 9:12 PM EDT
Nautical Twilight 5:02 AM EDT 9:50 PM EDT
Astronomical Twilight 4:21 AM EDT 10:31 PM EDT
Moon 6:28 AM EDT (6/3) 9:06 PM EDT (6/3)
Length of Visible Light 15h 32m
Length of Day
14h 32m
New Moon, 0% of the Moon is Illuminated
Jun 3
New Moon
Jun 10
First Quarter
Jun 17
Full
Jun 25
Last Quarter
Jul 2
New

Hourly Weather History & Observations

Time (EDT) Temp. Dew Point Humidity Pressure Visibility Wind Dir Wind Speed Gust Speed Precip Events Conditions
1:37 PM 69.8 °F 46.4 °F 43% 30.13 in 10.0 mi North 5.8 mph - N/A   Scattered Clouds
1:57 PM 69.8 °F 44.6 °F 40% 30.13 in 10.0 mi Calm Calm - N/A   Scattered Clouds
3:17 PM 69.8 °F 39.2 °F 33% 30.12 in 10.0 mi North 4.6 mph - N/A   Clear
3:38 PM 71.6 °F 37.4 °F 29% 30.12 in 10.0 mi WNW 5.8 mph - N/A   Clear
4:17 PM 71.6 °F 37.4 °F 29% 30.12 in 10.0 mi NNW 12.7 mph 17.3 mph N/A   Clear
4:37 PM 71.6 °F 37.4 °F 29% 30.12 in 10.0 mi NNW 5.8 mph - N/A   Clear
5:17 PM 71.6 °F 39.2 °F 31% 30.11 in 10.0 mi NW 9.2 mph - N/A   Clear
5:57 PM 69.8 °F 39.2 °F 33% 30.12 in 10.0 mi NNW 8.1 mph - N/A   Clear
6:17 PM 69.8 °F 39.2 °F 33% 30.12 in 10.0 mi NNW 4.6 mph - N/A   Clear
6:57 PM 68.0 °F 41.0 °F 37% 30.12 in 10.0 mi North 3.5 mph - N/A   Clear
7:17 PM 66.2 °F 42.8 °F 43% 30.12 in 10.0 mi North 3.5 mph - N/A   Clear
7:37 PM 66.2 °F 42.8 °F 43% 30.12 in 10.0 mi Calm Calm - N/A   Clear
7:57 PM 66.2 °F 42.8 °F 43% 30.12 in 10.0 mi Calm Calm - N/A   Clear
8:37 PM 62.6 °F 44.6 °F 52% 30.13 in 10.0 mi Calm Calm - N/A   Clear
8:57 PM 60.8 °F 46.4 °F 59% 30.15 in 10.0 mi Calm Calm - N/A   Clear
9:17 PM 60.8 °F 44.6 °F 55% 30.15 in 10.0 mi Calm Calm - N/A   Clear
9:57 PM 59.0 °F 46.4 °F 63% 30.16 in 10.0 mi Calm Calm - N/A   Clear
10:17 PM 57.2 °F 48.2 °F 72% 30.18 in 10.0 mi Calm Calm - N/A   Clear
10:57 PM 57.2 °F 48.2 °F 72% 30.18 in 10.0 mi NE 3.5 mph - N/A   Clear
11:19 PM 57.2 °F 46.4 °F 67% 30.19 in 10.0 mi Calm Calm - N/A   Clear
11:38 PM 55.4 °F 48.2 °F 77% 30.18 in 10.0 mi Calm Calm - N/A   Clear
11:57 PM 55.4 °F 48.2 °F 77% 30.19 in 10.0 mi Calm Calm - N/A   Clear